Sitka, AK

10:56 AM AKDT on April 29, 2017 (GMT -0800)
Sitka Rocky Gutierrez

Weather History for PASI - December, 2012

Change the Weather History Date:

Monday, December 3, 2012

  Actual Average Record
Temperature  
Mean Temperature 34 °F -  
Max Temperature 37 °F 39 °F 52 °F (1989)
Min Temperature 30 °F 31 °F 1 °F (1970)
Degree Days  
Heating Degree Days 32    
Moisture  
Dew Point 26 °F    
Average Humidity 75    
Maximum Humidity 93    
Minimum Humidity 59    
Precipitation  
Precipitation 0.01 in - - ()
Sea Level Pressure  
Sea Level Pressure 29.25 in    
Wind  
Wind Speed 9 mph (NE)    
Max Wind Speed 22 mph    
Max Gust Speed 32 mph    
Visibility 8 miles    
Events Snow    
Averages and records for this station are not official NWS values.
T = Trace of Precipitation, MM = Missing Value Source: NWS Daily Summary

Daily Weather History Graph

Daily Weather History Graph

Search for Another Location

Airport or City:

Trip Planner

Search our weather history database for the weather conditions in past years. The results will help you decide how hot, cold, wet, or windy it might be!

Date:

Astronomy

Dec. 03, 2012 Rise Set
Actual Time 8:19 AM AKST 3:23 PM AKST
Civil Twilight 7:31 AM AKST 4:11 PM AKST
Nautical Twilight 6:41 AM AKST 5:01 PM AKST
Astronomical Twilight 5:55 AM AKST 5:47 PM AKST
Moon 8:55 PM AKST (12/3) 11:13 AM AKST (12/3)
Length of Visible Light 8h 39m
Length of Day
7h 04m
Waning Gibbous, 77% of the Moon is Illuminated
Dec 3
Waning Gibbous
Dec 6
Last Quarter
Dec 12
New
Dec 19
First Quarter
Dec 28
Full

Hourly Weather History & Observations

Time (AKST) Temp. Windchill Dew Point Humidity Pressure Visibility Wind Dir Wind Speed Gust Speed Precip Events Conditions
12:11 AM 30.2 °F 22.6 °F 28.4 °F 93% 29.16 in 2.5 mi North 8.1 mph - 0.00 in Snow Light Snow
12:28 AM 30.2 °F 23.4 °F 28.4 °F 93% 29.16 in 5.0 mi North 6.9 mph - 0.01 in Snow Light Snow
12:37 AM 30.2 °F 21.9 °F 28.4 °F 93% 29.15 in 9.0 mi NNW 9.2 mph - 0.01 in Snow Light Snow
12:53 AM 30.9 °F 22.2 °F 28.9 °F 92% 29.17 in 10.0 mi NW 10.4 mph - 0.01 in Snow Light Snow
1:53 AM 30.9 °F 21.7 °F 27.0 °F 85% 29.19 in 4.0 mi NNW 11.5 mph - 0.00 in Snow Light Snow
2:53 AM 30.9 °F 22.8 °F 27.0 °F 85% 29.20 in 10.0 mi NNW 9.2 mph - 0.00 in   Overcast
3:53 AM 32.0 °F 25.6 °F 27.0 °F 82% 29.21 in 10.0 mi NNW 6.9 mph - N/A   Overcast
4:53 AM 32.0 °F 25.6 °F 26.1 °F 79% 29.22 in 10.0 mi North 6.9 mph - N/A   Overcast
5:53 AM 33.1 °F 25.5 °F 26.1 °F 75% 29.24 in 10.0 mi NW 9.2 mph - N/A   Overcast
6:40 AM 32.0 °F 26.4 °F 26.6 °F 80% 29.26 in 3.0 mi North 5.8 mph - 0.00 in Snow Light Snow
6:53 AM 32.0 °F 28.7 °F 27.0 °F 82% 29.27 in 3.0 mi NNW 3.5 mph - 0.00 in Snow Light Snow
7:23 AM 30.2 °F 25.4 °F 28.4 °F 93% 29.28 in 2.5 mi North 4.6 mph - 0.00 in Snow Light Snow
7:32 AM 30.2 °F - 28.4 °F 93% 29.28 in 8.0 mi Calm Calm - 0.00 in Snow Light Snow
7:53 AM 32.0 °F - 28.9 °F 88% 29.28 in 7.0 mi Calm Calm - 0.00 in   Overcast
8:04 AM 33.8 °F 27.7 °F 28.4 °F 81% 29.28 in 7.0 mi NW 6.9 mph - N/A   Overcast
8:53 AM 33.1 °F - 28.0 °F 82% 29.30 in 10.0 mi Calm Calm - N/A   Overcast
9:53 AM 37.0 °F 28.1 °F 24.1 °F 59% 29.32 in 10.0 mi East 15.0 mph 21.9 mph N/A   Overcast
10:53 AM 37.0 °F 28.5 °F 24.1 °F 59% 29.33 in 10.0 mi East 13.8 mph - N/A   Mostly Cloudy
11:53 AM 37.9 °F 30.0 °F 26.1 °F 62% 29.34 in 10.0 mi East 12.7 mph - N/A   Overcast
12:53 PM 37.0 °F 28.5 °F 25.0 °F 62% 29.34 in 10.0 mi ESE 13.8 mph - 0.00 in   Overcast
1:53 PM 37.0 °F 28.1 °F 25.0 °F 62% 29.33 in 10.0 mi ESE 15.0 mph 19.6 mph N/A   Mostly Cloudy
2:53 PM 37.0 °F 27.0 °F 25.0 °F 62% 29.33 in 10.0 mi ESE 18.4 mph - N/A   Mostly Cloudy
3:53 PM 36.0 °F 27.5 °F 25.0 °F 64% 29.32 in 10.0 mi ESE 12.7 mph - N/A   Overcast
4:53 PM 36.0 °F 27.1 °F 25.0 °F 64% 29.31 in 10.0 mi East 13.8 mph 17.3 mph N/A   Overcast
5:53 PM 35.1 °F 28.6 °F 24.1 °F 64% 29.28 in 10.0 mi East 8.1 mph - N/A   Mostly Cloudy
6:53 PM 36.0 °F 25.3 °F 25.0 °F 64% 29.24 in 10.0 mi ESE 19.6 mph 26.5 mph N/A   Partly Cloudy
7:02 PM 35.6 °F 25.5 °F 26.6 °F 70% 29.24 in 10.0 mi ESE 17.3 mph 32.2 mph N/A   Clear
7:53 PM 37.0 °F 32.4 °F 27.0 °F 67% 29.22 in 10.0 mi Variable 5.8 mph 21.9 mph N/A   Overcast
8:53 PM 36.0 °F 31.1 °F 27.0 °F 70% 29.19 in 10.0 mi Variable 5.8 mph - N/A   Overcast
9:53 PM 36.0 °F 25.3 °F 26.1 °F 67% 29.16 in 10.0 mi ESE 19.6 mph 29.9 mph N/A   Overcast
10:53 PM 36.0 °F 27.5 °F 25.0 °F 64% 29.15 in 10.0 mi East 12.7 mph 25.3 mph N/A   Mostly Cloudy
11:53 PM 36.0 °F 24.7 °F 24.1 °F 62% 29.13 in 10.0 mi East 21.9 mph 28.8 mph N/A   Mostly Cloudy